Regional Weather Roundup
Issued by NWS

Home | Current Version | Previous Version | Graphics & Text | Print | Product List | Glossary On
Versions: 1 2 3 4 5 6 7 8 9 10 11 12 13 14 15 16 17 18 19 20 21 22 23 24 25 26 27 28 29 30 31 32 33 34 35 36 37 38 39 40 41 42 43 44 45 46 47 48 49 50
000
ASUS43 KTOP 260959
RWRKS

WEATHER ROUNDUP FOR KANSAS
NATIONAL WEATHER SERVICE GOODLAND KS
400 AM CST MON JAN 26 2015

NOTE:  "FAIR" INDICATES FEW OR NO CLOUDS BELOW 12,000 FEET WITH NO
SIGNIFICANT WEATHER AND/OR OBSTRUCTIONS TO VISIBILITY.

KSZ001>006-013>018-027>032-041>047-261100-
NORTHWEST KANSAS

CITY           SKY/WX    TMP DP  RH WIND       PRES   REMARKS
GOODLAND       PTCLDY    40  30  67 W16       30.10F WCI  31
HAYS           CLEAR     30  19  64 W10       30.04F WCI  21
HILL CITY      CLEAR     36  29  75 W6        30.04F
RUSSELL        CLEAR     31  24  75 SW13      30.02F WCI  21
$$

KSZ061>065-074>080-084>089-261100-
SOUTHWEST KANSAS

CITY           SKY/WX    TMP DP  RH WIND       PRES   REMARKS
DODGE CITY     CLEAR     39  27  62 W15       30.10F WCI  31
ELKHART          N/A     40  27  60 W10         N/A  WCI  33
GARDEN CITY    CLEAR     33  29  85 W10       30.11F WCI  25
GREAT BEND     CLEAR     30  21  69 SW9       30.06F
LIBERAL        CLEAR     36  27  69 W12       30.16F WCI  27
$$

KSZ066>073-081>083-090>101-261100-
SOUTHEAST KANSAS

CITY           SKY/WX    TMP DP  RH WIND       PRES   REMARKS
CHANUTE        CLEAR     27  25  92 W6        30.12F
COFFEYVILLE    CLEAR     26  24  92 W3        30.14F
HUTCHINSON     CLEAR     29  24  82 S6        30.10F
MEDICINE LODGE   N/A     29  23  78 CALM      30.11F
NEWTON         CLEAR     28  21  74 SW5       30.11F
PARSONS        CLEAR     24  22  91 CALM      30.14F FOG
WICHITA INTL   PTCLDY    26  22  84 SW3       30.12F
WICHITA JABRA  CLEAR     31  27  85 SW7       30.11F
WINFIELD       CLEAR     25  23  92 CALM      30.14F
$$

KSZ007>012-019>026-033>040-048>060-102>105-261100-
NORTHEAST KANSAS

CITY           SKY/WX    TMP DP  RH WIND       PRES   REMARKS
CONCORDIA      CLEAR     32  29  88 SW8       30.01F
EMPORIA        CLEAR     26  24  92 SW8       30.08F
LAWRENCE       PTCLDY    21  19  92 CALM      30.09F
MANHATTAN      MOCLDY    28  26  92 SW8       30.07F
OLATHE IND     CLEAR     25  24  96 CALM      30.08F
OLATHE EXE     CLEAR     26  25  96 SW5       30.07F
SALINA         CLEAR     27  25  92 S6        30.07F
TOPEKA BILLARD CLEAR     23  22  96 CALM      30.08F
TOPEKA FORBES  CLEAR     28  24  85 SW8       30.07F
$$



USA.gov is the U.S. government's official web portal to all federal, state and local government web resources and services.